Location: Columbia
(38.9520°N, 92.3340°W)
Time: 23:12:30
(UTC-05:00)

FENGYUN 3A - Visible Passes

Search period start: 25 April 2017 00:00
Search period end: 05 May 2017 00:00
Orbit: 818 x 834 km, 98.4° (Epoch: 24 April)

Date Brightness Start Highest point End Pass type
(mag) Time Alt. Az. Time Alt. Az. Time Alt. Az.
25 Apr 4.4 20:31:27 10° S 20:36:42 56° W 20:41:58 10° NNW visible
27 Apr 6.3 21:36:46 10° WSW 21:39:35 14° W 21:42:24 10° WNW visible
28 Apr 6.0 21:16:26 10° SW 21:20:29 22° W 21:24:34 10° NW visible
29 Apr 5.4 20:56:41 10° SSW 21:01:26 32° W 21:06:13 10° NNW visible
30 Apr 4.7 20:37:18 10° S 20:42:27 49° W 20:47:38 10° NNW visible
02 May 6.4 21:43:19 10° WSW 21:45:24 12° W 21:47:30 10° WNW visible
03 May 6.2 21:22:35 10° SW 21:26:17 19° W 21:30:01 10° NW visible
04 May 5.6 21:02:40 10° SSW 21:07:14 28° W 21:11:48 10° NW visible
